Location: Adrasan Liman?
(36.3000°N, 30.4667°E)
Time: 05:27:50
(UTC+00:00)

Daily predictions for brighter satellites

Satellite Brightness Start Highest point End
(mag) Time Altitude Azimuth Time Altitude Azimuth Time Altitude Azimuth
ATLAS 3B CENTAUR R/B 4.4 01:03:46 35° S 01:06:10 38° SSE 01:17:35 10° E
Cosmos 2056 Rocket 3.8 01:29:27 61° NE 01:29:27 61° NE 01:33:42 10° NNE
SL-19 R/B 4.3 01:24:46 10° NNE 01:30:54 83° WNW 01:30:54 83° WNW
ATLAS CENTAUR R/B 2.1 01:36:26 60° NE 01:36:26 60° NE 01:40:27 10° NNE
Centaur D AC-25 3.6 01:35:55 43° S 01:36:20 43° S 01:47:56 10° E
Cosmos 1420 Rocket 3.9 01:37:42 81° E 01:37:42 81° E 01:42:52 10° NNE
Cosmos 1633 Rocket 3.9 01:36:06 10° N 01:40:18 47° E 01:44:28 10° SSE
Cosmos 44 Rocket 3.6 01:40:04 55° SE 01:40:18 56° ESE 01:44:54 10° NE
Atlas Centaur 2 3.1 01:39:07 51° SW 01:40:30 57° S 01:47:46 10° ESE
PAYLOAD A 4.2 01:35:44 10° N 01:39:35 57° N 01:39:35 57° N
Cosmos 407 Rocket 4.4 01:39:19 10° NNW 01:46:54 36° S 01:49:59 10° S
YAOGAN 6 4.4 01:42:03 10° NNE 01:45:17 30° E 01:46:28 24° SE
IRS-1C 4.1 01:41:40 10° NNE 01:47:02 83° ESE 01:48:35 48° S
Cosmos 1833 Rocket 3.1 01:51:06 44° NW 01:51:06 44° NW 01:55:51 10° N
Cosmos 1328 Rocket 3.6 01:51:07 73° NNE 01:51:07 73° NNE 01:55:06 10° N
Cosmos 1666 Rocket 3.5 01:48:20 10° N 01:52:50 86° E 01:53:15 73° SSE
CZ-3 R/B 4.0 01:37:59 28° SW 01:53:11 52° S 02:02:18 10° E
CZ-2C R/B 2.9 01:54:16 10° N 01:58:09 43° NW 01:58:09 43° NW
Cosmos 2360 4.2 01:53:48 10° NNW 01:59:32 80° ENE 02:05:13 10° SSE
Cosmos 1484 Rocket 3.0 01:57:40 10° NNE 02:01:38 69° E 02:02:47 43° S
DELTA 2 R/B (1) 3.6 02:02:06 51° WNW 02:03:26 72° NNW 02:09:02 10° ENE
Meteor 1-11 Rocket 3.9 01:58:19 10° N 02:04:20 83° E 02:10:15 10° S
Cosmos 1153 Rocket 4.4 02:01:45 33° SSW 02:04:30 64° W 02:10:39 10° N
Cosmos 2100 Rocket 4.0 02:00:04 10° S 02:06:11 80° E 02:12:21 10° N
Cosmos 2082 Rocket 2.1 02:04:14 31° SSW 02:07:04 89° WNW 02:12:43 10° NNE
ASTRO E2 3.4 02:09:29 39° S 02:09:29 39° S 02:12:56 10° ESE
USA 234 3.3 02:04:57 10° NE 02:11:30 75° SE 02:16:02 21° SW
ARIANE 5 R/B 2.4 02:07:20 10° N 02:12:19 65° WNW 02:14:27 33° SW
Cosmos 1515 Rocket 3.7 02:08:00 10° S 02:12:20 74° E 02:16:47 10° N
Delta 2 Rocket 2.9 02:14:36 60° SSE 02:14:36 60° SSE 02:17:47 10° E
COSMOS 2406 3.2 02:12:52 39° WSW 02:14:45 57° WNW 02:20:20 10° NNE
BREEZE M DEB (TANK) 3.0 02:17:54 38° N 02:17:54 38° N 02:20:57 10° NE
Tiangong -1.1 02:19:40 34° SSE 02:19:40 34° SSE 02:21:53 10° SE
ALOS 3.9 02:15:52 10° NNW 02:17:49 19° NW 02:17:49 19° NW
Cosmos 1697 Rocket 2.6 02:14:29 10° NNW 02:20:06 68° WSW 02:25:42 10° S
Cosmos 1452 Rocket 3.7 02:16:09 10° S 02:21:23 73° ESE 02:26:40 10° NNE
METEOR-M 4.4 02:17:08 10° N 02:22:11 44° WNW 02:24:05 31° WSW
CZ-2C R/B 2.4 02:17:43 10° S 02:22:53 75° WSW 02:28:11 10° NNW
Cosmos 1378 3.9 02:20:17 10° S 02:23:47 51° E 02:27:19 10° NNE
Cosmos 1470 Rocket 3.4 02:19:41 10° N 02:24:02 90° SSW 02:28:23 10° S
Cosmos 676 Rocket 3.9 02:19:37 10° NNW 02:24:52 89° WSW 02:30:07 10° SSE
IRS-P3 4.4 02:21:49 10° N 02:26:54 46° WNW 02:29:48 24° SW
Meteor 1-19 Rocket 4.3 02:21:50 10° S 02:27:17 76° E 02:32:42 10° NNE
Helios 1B rocket 3.7 02:24:26 10° NNW 02:26:52 24° NW 02:26:52 24° NW
CZ-2D R/B 3.6 02:28:35 10° N 02:32:22 45° WNW 02:33:54 30° SW
Cosmos 1743 3.0 02:32:53 10° NNW 02:36:28 42° W 02:40:03 10° SSW
Cosmos 1441 Rocket 4.2 02:37:34 25° WNW 02:37:34 25° WNW 02:40:11 10° NNW
FALCON 9 R/B 2.3 02:37:44 16° S 02:37:44 16° S 02:38:46 10° SSE
H-2A R/B 3.2 02:35:25 22° SW 02:38:15 47° SSE 02:59:08 10° E
Envisat 2.9 02:34:04 10° N 02:39:06 64° WNW 02:44:06 10° SSW
Cosmos 1536 3.2 02:38:07 10° NNW 02:41:53 39° W 02:45:38 10° SSW
Cosmos 1864 Rocket 4.4 02:40:27 10° S 02:46:38 84° W 02:52:57 10° N
Meteor 1-4 Rocket 3.1 02:43:25 10° NNW 02:46:45 35° W 02:50:06 10° SSW
Cosmos 1459 Rocket 4.2 02:41:15 10° SSW 02:47:22 52° W 02:53:35 10° N
CENTAUR R/B 2.4 02:43:54 14° SW 02:48:45 65° NW 02:55:24 10° NNE
COSMO-SKYMED 1 4.2 02:45:43 10° SE 02:49:43 38° ENE 02:53:45 10° N
CZ-2C R/B 2.6 02:48:20 10° N 02:52:08 84° WNW 02:55:58 10° SSW
SL-08 R/B 3.4 02:48:41 10° S 02:53:09 49° W 02:57:43 10° NNW
Cosmos 1802 Rocket 4.1 02:48:51 10° SSW 02:55:07 57° W 03:01:23 10° N
Cosmos 2233 Rocket 4.3 02:52:35 10° S 02:58:52 75° E 03:05:12 10° N
Cosmos 1980 Rocket 2.1 02:54:25 10° NNW 02:59:58 65° WSW 03:05:28 10° S
H-2A R/B 3.0 02:58:54 10° N 03:02:23 42° WNW 03:05:50 10° SSW
Meteor 2-9 Rocket 4.2 02:56:53 10° NNW 03:02:35 72° W 03:08:06 10° S
ATLAS 3B CENTAUR R/B 4.5 02:52:07 13° WSW 03:02:46 57° S 03:15:22 10° E
Cosmos 1725 Rocket 4.0 02:58:55 10° SSW 03:05:09 63° W 03:11:26 10° N
BREEZE-M (TANK) 4.3 02:46:14 10° SW 03:06:07 80° NW 03:10:32 10° NE
CZ-2C R/B 3.5 03:00:38 10° N 03:06:08 49° WNW 03:11:24 10° SW
Cosmos 1869 Rocket 3.9 03:01:47 10° N 03:06:13 71° E 03:10:35 10° SSE
NOSS 3-2 (C) 3.2 03:01:02 10° SSW 03:06:17 89° NW 03:12:16 10° NNE
Cosmos 2369 3.8 03:00:51 10° NNW 03:06:20 52° WSW 03:11:46 10° S
NOSS 3-2 (A) 3.7 03:04:03 10° WSW 03:09:06 42° NW 03:14:52 10° NNE
Cosmos 1850 Rocket 4.1 03:04:30 10° NNW 03:09:53 88° ENE 03:15:13 10° SSE
Meteor 1-18 Rocket 4.2 03:04:22 10° SSW 03:10:07 76° W 03:15:48 10° N
Meteor 1-29 4.2 03:08:06 10° NNW 03:10:35 20° WNW 03:13:03 10° WSW
X-37B 2.8 03:11:51 10° NNW 03:13:42 15° N 03:15:33 10° NE
Cosmos 2278 3.8 03:08:18 10° NNW 03:13:59 86° ENE 03:19:37 10° SSE
ATLAS CENTAUR R/B 3.7 03:12:34 10° WNW 03:14:56 13° NW 03:17:18 10° NNW
Cosmos 1242 Rocket 4.4 03:11:56 10° N 03:15:06 33° ENE 03:18:12 10° SE
CZ-4C R/B 3.7 03:12:44 10° S 03:16:37 44° W 03:20:42 10° NNW
BREEZE-M DEB (TANK) 4.5 03:15:53 10° N 03:17:09 13° NNE 03:18:29 10° ENE
SL-16 R/B 3.6 03:12:10 10° N 03:17:33 42° ENE 03:22:54 10° SE
YAOGAN 6 4.4 03:16:22 10° NW 03:18:15 14° WNW 03:20:07 10° W
USA 238 DEB 3.6 03:15:48 10° SW 03:22:07 77° WNW 03:28:50 10° NNE
USA 238 3.6 03:15:55 10° SW 03:22:14 78° WNW 03:28:57 10° NNE
NOAA 11 4.4 03:17:56 10° N 03:23:11 48° WNW 03:28:23 10° SW
Cosmos 1461 3.8 03:22:39 10° WSW 03:26:07 28° NW 03:29:42 10° N
Cosmos 1939 Rocket 3.2 03:23:51 10° NNE 03:27:53 74° E 03:31:50 10° S
GP-B 4.1 03:24:18 10° SW 03:27:55 25° W 03:31:34 10° NNW
Cosmos 1933 Rocket 4.5 03:25:14 10° NNW 03:28:57 27° W 03:32:40 10° SSW
Atlas Centaur 2 3.4 03:22:14 10° W 03:29:38 41° SSW 03:35:51 10° SE
